Overview Statistics Trail Chart Weather Telemetry Raw packets
 

This is the latest recevied weather packets stored in our database for station/object XE2B-20. If no packets are shown the sender has not sent any weather packets the latest 10 day(s).

<< 3 4 5 6 7 8 9 >>
Time Temp. Humidity Pressure Rain* Wind** Luminosity Snow
1788495023 15.56° C 63% 808.5 hPa - - - -
1788493526 15° C 63% 808.1 hPa - - - -
1788492028 15.56° C 63% 807.9 hPa - - - -
1788490529 15.56° C 62% 807.6 hPa - - - -
1788489031 15° C 63% 807.4 hPa - - - -
1788487531 15° C 63% 807.5 hPa - - - -
1788486033 15° C 64% 807.7 hPa - - - -
1788484536 15.56° C 64% 807.7 hPa - - - -
1788483037 16.11° C 65% 807.7 hPa - - - -
1788481539 21.67° C 57% 807 hPa - - - -
1788480048 24.44° C 54% 806.4 hPa - - - -
1788478545 26.11° C 53% 806 hPa - - - -
1788477048 30° C 47% 805.8 hPa - - - -
1788474560 29.44° C 48% 805.9 hPa - - - -
1788473062 28.89° C 50% 805.9 hPa - - - -
1788471564 30° C 48% 806 hPa - - - -
1788470065 28.33° C 50% 806.4 hPa - - - -
1788468566 25.56° C 57% 807 hPa - - - -
1788467075 28.89° C 53% 807.2 hPa - - - -
1788465569 32.78° C 45% 807.6 hPa - - - -
1788464070 28.89° C 52% 807.9 hPa - - - -
1788462571 27.22° C 55% 808.4 hPa - - - -
1788461073 31.11° C 48% 808.7 hPa - - - -
1788459573 30° C 51% 809 hPa - - - -
1788458074 28.33° C 55% 809.5 hPa - - - -

* Rain since midnight (hover to see other rain measurements)
** Current wind speed in m/s (hover to see current wind gust speed)